Skip Page Navigation
NASA JPL Caltech
NASA Logo - Jet Propulsion Laboratory + View the NASA Portal
+ Near-Earth Object (NEO) Program
Search JPL
JPL Home Earth Solar System Stars & Galaxies Technology
JPL Solar System Dynamics
BODIES ORBITS EPHEMERIDES TOOLS PHYSICAL DATA DISCOVERY FAQ SITE MAP
JPL Small-Body Database Browser
Search: [ help ]  
11492 Shimose (1988 VR3)
Classification: Main-belt Asteroid          SPK-ID: 2011492
Ephemeris | Orbit Diagram | Orbital Elements | Physical Parameters | Discovery Circumstances | Close-Approach Data ]

[ show orbit diagram ]
Orbital Elements at Epoch 2456800.5 (2014-May-23.0) TDB
Reference: JPL 4 (heliocentric ecliptic J2000)
 Element Value Uncertainty (1-sigma)   Units 
e .2037232903208761 6.3073e-08  
a 2.414346931298616 1.7049e-08 AU
q 1.922488230478352 1.5422e-07 AU
i 2.253441641157913 7.0265e-06 deg
node 183.2838464603384 0.00015474 deg
peri 194.4754850803706 0.00015609 deg
M 315.8519447014573 2.3024e-05 deg
tp 2456968.537812274288
(2014-Nov-07.03781227)
8.8918e-05 JED
period 1370.24410270548
3.75
1.4514e-05
3.974e-08
d
yr
n .2627269106936477 2.7828e-09 deg/d
Q 2.90620563211888 2.0522e-08 AU
  Orbit Determination Parameters
   # obs. used (total)      941  
   data-arc span      9000 days (24.64 yr)  
   first obs. used      1988-11-13  
   last obs. used      2013-07-05  
   planetary ephem.      DE431  
   SB-pert. ephem.      SB431-BIG16  
   condition code      0  
   fit RMS      .55029  
   data source      ORB  
   producer      Otto Matic  
   solution date      2013-Aug-05 16:52:42  

Additional Information
 Earth MOID = .922986 AU 
 T_jup = 3.488 
[ show covariance matrix ]

Ephemeris | Orbit Diagram | Orbital Elements | Physical Parameters | Discovery Circumstances | Close-Approach Data ]

Physical Parameter Table
Parameter Symbol Value Units Sigma Reference Notes
absolute magnitude H 14.1 mag n/a PDS3 (MPC 35830)  

11492 Shimose           Discovered 1988 Nov. 13 by K. Endate and K. Watanabe at Kitami.
Nobuo Shimose (b. 1944) is well known in Yamaguchi prefecture as a professional cameraman of the first order, as well as an amateur astronomer. He is also the leader of the Yamaguchi Astronomical Society and the Hagi Astronomical Club.
NOTE: some special characters may not display properly (any characters within {} are an attempt to place the proper accent above a character)
Reference: 20030106/MPCPages.arcLast Updated: 2003-10-02

[ show close-approach data ]
Alternate Designations
 1988 VR3 = 1992 YV4 
Ephemeris | Orbit Diagram | Orbital Elements | Physical Parameters | Discovery Circumstances | Close-Approach Data ]
ABOUT SSD CREDITS/AWARDS PRIVACY/COPYRIGHT GLOSSARY LINKS
FirstGov 2014-Apr-25 02:28 UT
(server date/time)  
NASA Home Page
Site Manager:   Donald K. Yeomans
Webmaster  Alan B. Chamberlin